This demonstration page uses our WeatherBlox Daily Observations layout. Learn more.

Left ArrowRight Arrow

Hourly Observations for January 8, 2016

Temp ( °F °C ) Dew Point ( °F °C ) Humidity (%) Winds ( mph kmh ) Pressure ( in mb ) Visibility ( mi km ) Precip ( " mm )
12:03 am 00:03 Cloudy with Light Snow 30 -1 28 -2 93 93 N 13 20 29.85 1011 1 2 0.00 0.00
12:53 am 00:53 Cloudy with Light Snow 30 -1.1 27 -2.8 88 88 N 17 28 29.80 1009 2 3 0.00 0.03
1:00 am 01:00 Cloudy with Light Snow 28 -2 27 -3 93 93 N 16 26 29.83 1010 3 4 0.00 0.00
1:11 am 01:11 Cloudy with Light Snow 29 -1.7 26 -3.3 89 89 N 17 28 29.83 1010 3 5 0.00 0.03
1:53 am 01:53 Cloudy with Light Snow 29 -1.7 26 -3.3 89 89 N 17 28 29.80 1009 5 8 0.00 0.03
2:53 am 02:53 Cloudy 29 -1.7 26 -3.3 89 89 N 16 26 29.81 1010 9 14 0.00 0.03
3:38 am 03:38 Cloudy 28 -2 25 -4 86 86 N 18 30 29.85 1011 8 13 0.00 0.00
3:53 am 03:53 Cloudy 28 -2.2 25 -3.9 88 88 N 16 26 29.82 1010 7 11 0.00 0.00
4:15 am 04:15 Cloudy 29 -1.7 25 -3.9 85 85 N 17 28 29.85 1011 9 14 0.00 0.00
4:53 am 04:53 Cloudy 28 -2.2 25 -3.9 88 88 N 16 26 29.85 1011 10 16 0.00 0.00
5:53 am 05:53 Cloudy 28 -2.2 24 -4.4 85 85 NNW 18 30 29.85 1011 10 16 0.00 0.00
6:53 am 06:53 Cloudy with Light Snow 28 -2.2 24 -4.4 85 85 NNW 16 26 29.86 1011 4 6 0.00 0.03
7:09 am 07:09 Cloudy with Light Snow 28 -2.2 24 -4.4 85 85 NNW 17 28 29.91 1013 3 4 0.00 0.03
7:13 am 07:13 Cloudy with Light Snow 28 -2.2 24 -4.4 85 85 NNW 15 24 29.91 1013 3 5 0.00 0.03
7:23 am 07:23 Cloudy with Light Snow 28 -2.2 24 -4.4 85 85 NNW 16 26 29.88 1012 3 5 0.00 0.03
7:40 am 07:40 Cloudy with Light Snow 28 -2 25 -4 86 86 NNW 18 30 29.91 1013 3 5 0.00 0.00
7:53 am 07:53 Cloudy with Light Snow 28 -2.2 24 -4.4 85 85 NNW 17 28 29.88 1012 3 5 0.00 0.03
8:31 am 08:31 Windy with Snow Likely 28 -2.2 24 -4.4 85 85 NNW 21 33 29.91 1013 5 8 0.00 0.03
8:53 am 08:53 Cloudy with Light Snow 28 -2.2 24 -4.4 85 85 NNW 18 30 29.89 1012 8 13 0.00 0.03
9:09 am 09:09 Cloudy with Light Snow 28 -2.2 24 -4.4 85 85 NNW 18 30 29.91 1013 6 10 0.00 0.03
9:53 am 09:53 Cloudy 28 -2.2 24 -4.4 85 85 NNW 22 35 29.91 1013 10 16 0.00 0.03
10:18 am 10:18 Cloudy 28 -2 25 -4 86 86 N 18 30 29.97 1015 10 16 0.00 0.00
10:53 am 10:53 Cloudy 29 -1.7 24 -4.4 82 82 NNW 21 33 29.93 1013 10 16 0.00 0.00
11:53 am 11:53 Cloudy 29 -1.7 24 -4.4 82 82 N 20 31 29.92 1013 10 16 0.00 0.00
12:53 pm 12:53 Cloudy 30 -1.1 25 -3.9 82 82 N 18 30 29.91 1013 10 16 0.00 0.00
1:53 pm 13:53 Windy with Snow Likely 30 -1.1 24 -4.4 79 79 NNW 20 31 29.92 1013 3 5 0.00 0.03
2:43 pm 14:43 Windy with Snow Likely 30 -1.1 25 -3.9 82 82 N 20 31 29.97 1015 2 3 0.00 0.03
2:53 pm 14:53 Cloudy with Light Snow 30 -1.1 25 -3.9 82 82 NNW 17 28 29.94 1014 1 2 0.00 0.03
3:28 pm 15:28 Cloudy with Light Snow 28 -2 25 -4 86 86 N 18 30 29.97 1015 3 4 0.00 0.00
3:36 pm 15:36 Windy with Snow Likely 29 -1.7 24 -4.4 82 82 N 21 33 29.97 1015 3 5 0.00 0.03
3:53 pm 15:53 Cloudy with Light Snow 29 -1.7 24 -4.4 82 82 NNW 16 26 29.96 1015 3 5 0.00 0.03
4:03 pm 16:03 Cloudy with Light Snow 28 -2 25 -4 86 86 NNW 17 28 30.00 1016 3 5 0.00 0.00
4:53 pm 16:53 Cloudy with Light Snow 29 -1.7 23 -5 78 78 N 17 28 29.99 1016 4 6 0.00 0.03
5:17 pm 17:17 Cloudy with Light Snow 28 -2.2 23 -5 81 81 N 18 30 30.06 1018 3 4 0.00 0.03
5:24 pm 17:24 Cloudy with Light Snow 28 -2 23 -5 80 80 N 16 26 30.06 1018 3 4 0.00 0.00
5:38 pm 17:38 Cloudy with Light Snow 28 -2 23 -5 80 80 NNW 13 20 30.06 1018 4 6 0.00 0.00
5:53 pm 17:53 Windy with Snow Likely 27 -2.8 23 -5 85 85 N 22 35 30.02 1017 5 8 0.00 0.03
6:08 pm 18:08 Windy with Snow Likely 27 -3 21 -6 80 80 N 20 31 30.09 1019 2 3 0.00 0.00
6:18 pm 18:18 Cloudy with Light Snow 27 -3 21 -6 80 80 N 17 28 30.09 1019 2 3 0.00 0.00
6:42 pm 18:42 Cloudy with Light Snow 27 -3 21 -6 80 80 N 18 30 30.09 1019 3 5 0.00 0.00
6:53 pm 18:53 Cloudy with Light Snow 26 -3.3 22 -5.6 84 84 N 15 24 30.05 1018 3 5 0.00 0.03
7:01 pm 19:01 Cloudy with Light Snow 26 -3.3 22 -5.6 84 84 N 17 28 30.09 1019 3 4 0.00 0.03
7:53 pm 19:53 Cloudy with Light Snow 26 -3.3 22 -5.6 84 84 N 15 24 30.05 1018 2 3 0.00 0.03
8:28 pm 20:28 Cloudy with Light Snow 25 -4 21 -6 86 86 N 10 17 30.12 1020 3 5 0.00 0.00
8:35 pm 20:35 Cloudy with Light Snow 26 -3.3 22 -5.6 84 84 N 16 26 30.12 1020 2 3 0.00 0.03
8:53 pm 20:53 Cloudy with Light Snow 25 -3.9 21 -6.1 85 85 N 16 26 30.06 1018 3 4 0.00 0.03
9:04 pm 21:04 Cloudy with Light Snow 25 -4 21 -6 86 86 N 16 26 30.12 1020 3 5 0.00 0.00
9:53 pm 21:53 Cloudy with Light Snow 25 -3.9 21 -6.1 85 85 NNW 15 24 30.07 1018 4 6 0.00 0.03
10:03 pm 22:03 Cloudy with Light Snow 25 -4 19 -7 80 80 N 18 30 30.12 1020 5 8 0.00 0.00
10:33 pm 22:33 Cloudy with Light Snow 24 -4.4 20 -6.7 84 84 N 16 26 30.12 1020 5 8 0.00 0.03
10:53 pm 22:53 Cloudy 24 -4.4 20 -6.7 84 84 N 17 28 30.08 1019 7 11 0.00 0.03
11:44 pm 23:44 Cloudy with Light Snow 25 -4 19 -7 80 80 NNW 13 20 30.15 1021 5 8 0.00 0.00
11:53 pm 23:53 Cloudy with Haze 24 -4.4 19 -7.2 81 81 NNW 12 19 30.10 1019 5 8 0.00 0.03

Powered by AerisWeather